| time (UTC) | temp F | wind direction | speed knots | gust knots | rain 1hr in | rain 24hr in | rain mn in | humidity % | barometer mb |
| 20260502204303 | 74 | 315 | 7.0 | 0.0 | 0.00 | 0.00 | 0.05 | 37 | 1019.6 |
| 20260502202803 | 74 | 0 | 5.2 | 0.0 | 0.00 | 0.00 | 0.05 | 39 | 1019.6 |
| 20260502201302 | 74 | 293 | 13.9 | 0.0 | 0.00 | 0.00 | 0.05 | 40 | 1020.0 |
| 20260502195802 | 73 | 90 | 5.2 | 0.0 | 0.00 | 0.00 | 0.05 | 39 | 1020.3 |
| 20260502194302 | 74 | 0 | 6.1 | 0.0 | 0.00 | 0.00 | 0.05 | 41 | 1020.3 |
| 20260502192802 | 73 | 23 | 3.5 | 0.0 | 0.00 | 0.00 | 0.05 | 40 | 1020.3 |
| 20260502191802 | 73 | 270 | 4.3 | 0.0 | 0.00 | 0.00 | 0.05 | 40 | 1020.3 |
| 20260502190302 | 72 | 23 | 3.5 | 0.0 | 0.00 | 0.00 | 0.05 | 38 | 1020.3 |
| 20260502184802 | 72 | 23 | 5.2 | 0.0 | 0.00 | 0.00 | 0.05 | 43 | 1020.3 |
| 20260502183802 | 73 | 23 | 6.1 | 0.0 | 0.00 | 0.00 | 0.05 | 46 | 1020.7 |
| 20260502182304 | 72 | 293 | 6.1 | 0.0 | 0.00 | 0.00 | 0.05 | 43 | 1021.0 |
| 20260502163802 | 69 | 45 | 6.1 | 0.0 | 0.00 | 0.00 | 0.05 | 51 | 1021.3 |
| 20260502162304 | 69 | 0 | 6.1 | 0.0 | 0.00 | 0.00 | 0.05 | 54 | 1021.3 |
| 20260502160802 | 68 | 23 | 6.1 | 0.0 | 0.00 | 0.00 | 0.05 | 55 | 1021.3 |
| 20260502122802 | 54 | 270 | 1.7 | 0.0 | 0.00 | 0.00 | 0.05 | 94 | 1019.0 |
| 20260502121302 | 54 | 315 | 0.0 | 0.0 | 0.00 | 0.00 | 0.05 | 97 | 1018.6 |
| 20260502115803 | 52 | 338 | 0.0 | 0.0 | 0.00 | 0.00 | 0.05 | 98 | 1018.6 |
| 20260502112802 | 51 | 315 | 0.0 | 0.0 | 0.00 | 0.00 | 0.05 | 98 | 1017.9 |
| 20260502111302 | 51 | 338 | 0.0 | 0.0 | 0.00 | 0.00 | 0.05 | 98 | 1017.6 |
| 20260502110302 | 52 | 315 | 0.0 | 0.0 | 0.00 | 0.00 | 0.05 | 98 | 1017.3 |
| 20260502104803 | 52 | 315 | 0.0 | 0.0 | 0.00 | 0.00 | 0.05 | 98 | 1017.3 |
| 20260502103802 | 52 | 293 | 0.0 | 0.0 | 0.00 | 0.00 | 0.05 | 98 | 1017.3 |
| 20260502102305 | 53 | 338 | 0.9 | 0.0 | 0.00 | 0.00 | 0.05 | 98 | 1017.3 |
| 20260502100802 | 53 | 315 | 2.6 | 0.0 | 0.00 | 0.00 | 0.05 | 98 | 1017.3 |
| 20260502090306 | 53 | 315 | 0.9 | 0.0 | 0.00 | 0.00 | 0.05 | 97 | 1017.3 |
| 20260502064803 | 52 | 23 | 2.6 | 0.0 | 0.00 | 0.00 | 0.05 | 96 | 1017.3 |
| 20260502063302 | 52 | 0 | 3.5 | 0.0 | 0.01 | 0.00 | 0.05 | 96 | 1017.3 |
| 20260502060312 | 52 | 23 | 5.2 | 0.0 | 0.04 | 0.00 | 0.05 | 97 | 1017.6 |
| 20260502054802 | 52 | 68 | 6.1 | 0.0 | 0.06 | 0.00 | 0.05 | 97 | 1017.3 |
| 20260502053304 | 52 | 293 | 3.5 | 0.0 | 0.09 | 0.00 | 0.04 | 97 | 1017.9 |
| 20260502051803 | 52 | 0 | 2.6 | 0.0 | 0.08 | 0.00 | 0.03 | 97 | 1018.3 |
| 20260502050507 | 52 | 45 | 4.3 | 0.0 | 0.08 | 0.00 | 0.01 | 97 | 1017.9 |
| 20260502045802 | 52 | 338 | 5.2 | 0.0 | 0.06 | 0.00 | 0.14 | 97 | 1017.6 |
| 20260502042802 | 52 | 23 | 3.5 | 0.0 | 0.03 | 0.00 | 0.10 | 97 | 1017.6 |
| 20260502041302 | 52 | 45 | 2.6 | 0.0 | 0.03 | 0.00 | 0.08 | 97 | 1017.9 |
| 20260502035802 | 52 | 0 | 5.2 | 0.0 | 0.05 | 0.00 | 0.08 | 97 | 1018.3 |
| 20260502034302 | 52 | 23 | 4.3 | 0.0 | 0.05 | 0.00 | 0.07 | 97 | 1017.6 |
| 20260502025802 | 52 | 23 | 3.5 | 0.0 | 0.00 | 0.00 | 0.02 | 97 | 1017.9 |
| 20260502024302 | 52 | 23 | 6.1 | 0.0 | 0.00 | 0.00 | 0.02 | 97 | 1016.9 |
| 20260502022802 | 52 | 45 | 3.5 | 0.0 | 0.00 | 0.00 | 0.02 | 97 | 1016.3 |
| 20260502021302 | 51 | 45 | 4.3 | 0.0 | 0.00 | 0.00 | 0.02 | 97 | 1016.3 |
| 20260502015803 | 51 | 23 | 4.3 | 0.0 | 0.00 | 0.00 | 0.02 | 97 | 1015.9 |
| 20260502014302 | 51 | 23 | 7.0 | 0.0 | 0.02 | 0.00 | 0.02 | 97 | 1015.6 |
| 20260502012802 | 51 | 23 | 7.8 | 0.0 | 0.02 | 0.00 | 0.02 | 98 | 1014.9 |
| 20260502011302 | 51 | 23 | 5.2 | 0.0 | 0.02 | 0.00 | 0.02 | 98 | 1014.9 |
| 20260502005802 | 52 | 0 | 6.1 | 0.0 | 0.01 | 0.00 | 0.01 | 98 | 1015.2 |
| 20260502004302 | 52 | 338 | 6.1 | 0.0 | 0.08 | 0.00 | 0.11 | 98 | 1015.9 |
| 20260502002802 | 52 | 270 | 2.6 | 0.0 | 0.09 | 0.00 | 0.09 | 98 | 1015.9 |
| 20260501235802 | 52 | 338 | 1.7 | 0.0 | 0.04 | 0.00 | 0.04 | 97 | 1016.6 |
| 20260501232802 | 52 | 315 | 5.2 | 0.0 | 0.01 | 0.00 | 0.01 | 97 | 1015.9 |
| 20260501231302 | 52 | 23 | 3.5 | 0.0 | 0.12 | 0.00 | 0.12 | 97 | 1015.6 |
| 20260501225802 | 52 | 270 | 3.5 | 0.0 | 0.06 | 0.00 | 0.06 | 97 | 1015.6 |
| 20260501224302 | 52 | 0 | 3.5 | 0.0 | 0.00 | 0.00 | 0.00 | 97 | 1015.2 |
| 20260501222802 | 52 | 23 | 1.7 | 0.0 | 0.13 | 0.00 | 0.46 | 97 | 1014.6 |
| 20260501215802 | 52 | 45 | 9.6 | 0.0 | 0.15 | 0.00 | 0.40 | 96 | 1012.9 |
| 20260501214303 | 52 | 23 | 5.2 | 0.0 | 0.18 | 0.00 | 0.36 | 96 | 1013.2 |
| 20260501212802 | 53 | 45 | 9.6 | 0.0 | 0.17 | 0.00 | 0.31 | 96 | 1012.9 |
| 20260501211303 | 53 | 23 | 7.0 | 0.0 | 0.21 | 0.00 | 0.26 | 96 | 1014.2 |
| 20260501205802 | 53 | 45 | 6.1 | 0.0 | 0.20 | 0.00 | 0.22 | 96 | 1013.5 |